Dewpoint
72 72 71 71 70 69 69 69 68 70 72 70 70 72 71 73 74 73 72 74 72 76 78 79 78 77 77 78 77 76 76 75 73 71 73 72 71 69 65 66 68 67
71 72 73 71 71 71 70 69 70 69 71 71 70 70 71 72 72 73 73 74 74 73 77 77 78 78 77 77 77 75 76 76 74 69 72 72 71 69 66 67 66 68
71 71 70 70 68 70 66 69 70 69 67 68 70 71 70 71 72 73 73 73 73 71 74 77 78 77 77 77 79 76 76 76 74 71 72 72 70 70 70 65 66 67
73 71 68 68 66 67 68 68 68 70 67 68 67 69 70 67 71 72 73 74 74 73 73 73 75 75 76 76 79 75 75 77 74 75 74 73 72 70 69 69 67 66
73 71 69 68 67 68 69 68 65 66 66 67 66 68 71 72 71 70 72 73 74 73 73 73 73 74 76 76 79 76 74 74 75 76 76 74 74 72 69 69 69 67
74 73 71 69 68 68 66 66 67 64 66 64 66 65 67 70 70 70 71 71 70 70 69 70 71 72 71 75 78 75 74 72 73 75 75 75 73 72 67 68 70 69
72 73 71 68 67 67 66 67 67 67 65 64 67 66 66 67 70 70 70 70 68 70 68 70 72 72 72 74 75 75 75 74 74 75 75 74 74 74 70 70 71 70
71 72 72 70 67 66 67 65 67 67 67 67 64 67 67 65 69 68 69 69 68 69 70 68 72 73 70 71 73 74 74 71 72 75 76 74 74 74 74 71 71 72
71 71 72 70 67 65 64 63 65 67 68 67 64 64 67 67 66 67 69 70 70 70 71 71 72 71 72 71 72 73 74 72 70 71 73 73 73 73 73 73 72 72
72 70 68 68 66 64 63 63 62 65 67 66 64 62 63 68 67 66 67 71 70 70 71 72 71 71 71 71 71 72 73 74 73 73 71 71 71 71 71 71 71 72
70 69 66 67 65 62 62 62 61 60 64 66 65 61 60 64 67 68 69 70 68 69 70 71 71 71 72 70 70 71 72 72 73 73 72 72 72 72 71 71 71 70
71 69 67 66 65 63 61 60 60 59 59 63 64 63 61 59 65 65 66 68 69 70 70 71 72 72 73 72 70 69 70 71 71 71 70 71 71 70 70 70 70 71
69 70 68 65 66 65 62 60 60 59 57 58 62 63 61 58 59 65 66 66 69 69 68 69 71 71 74 74 72 69 69 70 66 67 68 68 69 68 68 69 68 69
71 71 70 69 67 70 67 63 59 59 61 60 60 63 62 60 57 59 64 65 66 67 68 67 70 71 72 73 73 70 68 67 68 66 65 66 66 67 66 65 66 67
72 70 71 71 70 70 69 67 64 64 64 63 62 60 60 61 60 57 61 65 66 67 67 65 64 68 70 71 73 73 70 66 67 67 66 65 65 64 65 65 64 64
73 73 73 73 71 71 72 71 69 66 62 62 62 61 64 65 64 62 59 61 65 67 67 64 63 63 70 68 69 72 72 66 66 68 69 67 66 66 63 62 62 62
73 73 73 73 73 72 72 72 71 69 68 70 67 65 68 70 67 63 60 59 61 65 67 65 64 61 66 64 64 67 70 70 66 68 69 69 66 67 66 62 61 62
72 73 74 73 73 74 73 73 72 72 72 71 68 66 71 66 65 66 67 62 59 60 63 66 66 65 61 63 63 64 68 71 66 64 63 66 67 65 65 64 62 60
73 72 73 73 74 74 74 74 74 73 72 70 68 68 68 71 72 68 67 67 64 64 60 62 65 64 60 61 62 63 64 68 64 64 60 60 64 66 65 66 65 63
74 73 72 73 75 74 74 73 73 73 72 70 69 70 70 70 69 71 70 72 70 68 68 63 65 66 60 60 61 62 63 66 67 60 61 61 63 62 62 64 65 64
72 73 74 73 72 72 74 74 73 73 72 72 68 68 70 71 70 71 71 71 70 69 68 65 63 63 59 58 59 60 62 64 69 62 57 59 61 62 68 64 69 64
71 71 72 73 74 73 72 73 72 74 73 73 72 69 69 69 71 71 71 71 70 70 68 68 65 61 58 58 58 59 61 70 74 70 64 61 60 64 64 69 67 67
68 70 71 72 73 73 73 72 73 73 75 75 75 74 74 75 72 69 73 71 71 71 70 70 68 65 57 56 57 58 62 71 74 73 71 69 66 67 65 63 64 68
68 69 70 70 71 71 72 72 72 73 73 73 73 73 73 72 74 73 73 73 72 71 68 70 69 67 55 55 56 57 64 72 73 73 73 72 71 70 67 65 68 70
69 69 69 69 69 70 71 72 71 72 73 74 74 74 74 74 74 73 73 74 73 73 72 72 70 68 55 54 55 55 64 73 73 72 72 72 72 72 71 70 71 72
66 67 68 66 69 69 71 73 74 72 72 72 72 73 73 74 75 73 73 73 73 73 70 72 73 72 71 53 54 54 58 74 73 71 71 72 72 72 72 73 72 71